GFSNIL_sfc_thetae_000.txt.gz
Theta_e
316 315 313 313 312 313 315 316 320 326 326 326 326 326 323 322 323 324 322 321 322 321
313 314 314 314 313 312 314 318 316 317 318 319 321 322 320 320 319 319 319 320 321 319
313 314 313 314 312 313 313 317 318 319 319 319 318 317 318 318 318 319 318 316 313 311
313 313 312 312 313 313 313 315 316 317 318 317 316 318 320 319 320 319 318 318 318 316
314 311 310 310 311 313 313 314 315 316 317 317 317 317 317 315 315 315 314 314 314 313
312 309 308 309 310 311 311 312 313 314 315 316 316 314 312 311 310 308 308 309 309 309
309 308 307 309 310 310 309 309 309 311 313 314 314 313 310 308 304 302 301 301 302 305
311 308 307 309 309 309 308 309 307 306 307 310 312 312 306 303 299 296 296 296 298 301
313 310 307 308 308 308 307 305 305 304 304 305 309 303 304 301 297 295 293 293 293 296
315 310 308 308 308 305 303 303 302 301 301 302 304 301 301 302 297 293 292 291 291 292
315 311 309 308 307 306 302 301 300 300 300 300 301 300 300 301 298 296 295 295 295 292
317 314 310 308 307 307 304 302 301 301 300 299 299 298 300 303 303 302 301 302 301 296
319 316 312 309 308 309 307 306 304 301 300 300 299 296 298 301 302 300 300 299 300 300
320 318 316 313 310 310 310 309 306 303 301 299 297 298 296 298 302 302 299 298 296 295

GFSNIL_sfc_thetae_003.txt.gz
Theta_e
312 311 310 310 311 313 317 322 325 324 323 324 324 325 326 324 323 323 323 321 321 321
312 312 310 311 310 311 314 321 324 319 316 317 319 320 320 320 321 321 320 321 320 320
310 311 311 310 310 312 313 315 315 316 314 313 314 315 316 316 316 316 315 313 314 312
310 310 310 310 310 311 312 314 315 315 315 316 317 317 317 316 316 316 314 314 314 311
309 308 308 309 310 310 311 312 314 315 316 316 315 313 314 313 313 313 312 312 313 312
308 306 306 307 309 310 311 311 313 314 314 314 312 311 310 310 309 308 308 309 310 309
307 306 306 307 308 309 309 309 310 312 312 312 310 309 307 305 303 302 302 303 306 308
307 305 306 307 306 306 307 308 309 310 310 309 309 308 304 302 299 299 298 299 301 303
308 306 306 306 305 305 305 304 305 306 307 307 308 301 302 300 296 295 295 295 295 298
310 307 306 306 306 303 301 301 301 302 304 304 303 298 298 299 294 292 290 290 291 294
310 306 306 305 304 301 300 299 298 299 300 302 303 298 297 297 292 290 290 290 289 290
311 307 306 305 303 302 300 299 299 299 299 301 301 298 297 297 294 293 293 295 295 291
313 309 306 305 304 304 301 300 300 299 299 300 301 296 296 299 300 297 298 298 298 299
315 311 308 306 305 306 304 302 300 299 298 298 298 298 296 297 302 301 299 298 298 298

GFSNIL_sfc_thetae_006.txt.gz
Theta_e
313 312 311 314 319 320 323 324 325 326 327 326 327 329 328 326 325 324 323 323 323 323
314 313 312 312 315 319 322 325 325 324 323 324 326 327 326 326 325 326 324 325 324 324
313 313 312 312 314 317 317 320 318 318 317 317 320 323 324 323 324 323 323 322 321 320
312 312 312 312 313 315 316 317 316 317 318 318 319 320 319 319 320 318 318 319 319 317
311 311 311 312 312 313 315 316 318 320 318 317 316 318 318 317 317 316 316 316 316 313
309 310 310 311 312 313 314 315 317 317 315 314 314 313 313 313 312 312 313 314 314 312
308 309 309 310 311 312 313 314 314 315 314 313 312 311 310 310 309 309 309 311 312 312
308 308 309 310 310 311 312 313 314 313 312 311 311 309 309 309 308 307 306 307 308 310
308 307 309 308 308 309 309 310 312 312 311 311 309 301 302 305 305 304 305 305 304 306
309 308 308 307 307 306 306 307 309 309 310 309 307 298 298 299 301 301 301 301 301 302
309 307 308 307 306 304 304 305 305 306 307 308 307 297 296 296 298 297 297 298 298 301
310 307 307 307 305 303 303 302 303 304 305 306 307 297 295 297 297 297 297 297 297 296
311 308 307 307 305 305 304 304 303 303 304 302 306 296 295 298 299 299 299 301 301 297
312 309 308 307 306 306 305 305 303 303 303 303 303 303 296 296 305 305 304 303 303 303

GFSNIL_sfc_thetae_009.txt.gz
Theta_e
325 322 324 326 324 326 327 327 330 329 330 330 328 330 332 331 331 332 329 328 329 325
324 324 323 327 326 330 328 329 331 328 332 333 332 329 330 332 330 325 325 325 324 324
322 323 324 326 326 328 327 325 325 323 323 327 332 329 328 330 330 331 330 328 330 327
322 322 324 324 325 324 326 325 324 324 323 324 328 330 331 333 332 332 330 331 331 329
322 322 323 324 325 327 327 328 328 327 327 325 326 328 329 329 330 330 328 328 329 328
321 321 323 323 323 326 327 327 327 327 326 326 324 324 324 325 326 328 329 329 328 327
321 321 322 323 324 325 326 326 325 325 324 323 323 322 321 322 321 321 323 326 326 326
320 320 320 322 323 323 325 325 325 324 324 324 322 320 323 323 323 321 319 319 320 320
318 318 320 320 321 322 323 323 324 323 323 323 317 301 305 318 322 322 321 319 319 317
318 317 319 319 320 320 323 324 323 322 323 323 320 299 299 305 320 320 320 319 318 314
317 317 319 318 320 320 320 323 322 322 323 322 318 297 296 301 315 315 314 316 316 317
317 317 318 318 318 319 319 319 319 320 320 321 319 296 295 304 311 309 308 307 308 311
318 317 318 320 318 318 319 319 317 317 319 312 320 295 294 303 307 308 305 307 307 297
320 318 320 321 320 318 317 317 316 315 317 317 317 315 295 295 310 308 307 307 308 308

GFSNIL_sfc_thetae_012.txt.gz
Theta_e
330 328 327 327 331 328 329 331 331 331 332 332 331 335 338 339 336 338 335 335 332 330
330 331 328 333 333 331 331 332 330 333 332 333 333 334 336 332 331 333 331 331 333 329
328 330 329 335 331 329 329 326 325 326 327 330 330 329 332 335 331 329 330 329 329 325
326 329 330 330 331 331 331 332 325 325 326 327 328 329 334 331 329 327 327 329 326 324
326 328 329 330 331 333 332 331 333 330 329 328 329 330 331 331 332 330 329 329 329 325
326 327 329 330 331 332 331 333 333 332 327 331 333 334 335 336 334 331 331 332 332 332
326 326 329 330 331 330 330 331 333 333 331 331 329 328 331 334 335 335 335 335 334 334
325 326 327 328 330 331 330 329 328 328 327 327 326 325 328 329 330 331 331 332 332 333
320 323 325 328 329 330 330 329 329 328 327 326 322 303 310 323 326 326 326 325 324 322
319 319 323 325 325 328 329 331 329 328 327 327 322 300 303 311 330 328 327 326 326 322
319 317 321 323 325 329 331 331 330 329 329 328 318 299 300 308 328 328 328 329 329 327
320 318 320 321 325 328 329 330 329 329 328 327 322 297 297 308 323 322 322 321 322 323
321 319 320 322 325 327 327 326 324 325 327 316 325 296 295 304 315 317 314 316 315 299
323 321 323 325 326 326 325 323 324 322 325 324 322 315 294 295 314 313 311 311 311 308

GFSNIL_sfc_thetae_015.txt.gz
Theta_e
335 335 331 333 330 332 334 333 332 335 335 336 336 337 338 340 340 340 340 335 336 332
333 334 332 333 335 331 334 336 334 335 333 334 335 337 338 338 337 338 338 337 334 330
331 334 335 334 330 328 330 331 332 334 332 333 335 336 337 335 335 335 336 334 330 326
329 331 332 332 332 333 334 329 328 329 332 331 333 334 335 333 333 332 331 328 327 324
328 331 332 332 333 333 333 332 329 328 328 329 332 333 333 330 331 330 327 325 324 323
326 329 331 332 332 335 335 334 334 332 330 331 330 330 331 331 329 331 329 326 324 324
326 328 330 332 332 332 334 334 333 333 330 329 333 334 335 332 332 331 329 330 330 330
327 327 329 331 331 330 331 332 332 330 328 328 328 329 335 335 336 335 334 336 333 334
324 324 326 330 331 331 329 328 328 327 326 327 324 306 312 326 332 334 333 330 329 324
321 322 325 326 328 328 330 331 330 329 328 325 323 305 308 315 329 329 330 329 328 325
318 320 323 324 326 330 331 331 329 328 328 327 315 302 305 312 332 331 330 331 329 329
318 319 322 323 327 331 331 332 330 329 329 328 321 299 299 309 329 328 328 329 329 329
320 319 321 326 329 331 331 330 327 328 329 319 326 298 297 304 320 324 321 323 321 302
322 322 325 330 332 330 328 328 328 326 328 326 326 314 296 296 318 317 315 314 313 313

GFSNIL_sfc_thetae_021.txt.gz
Theta_e
324 323 323 323 323 323 322 323 325 325 326 328 328 328 326 325 324 324 321 322 322 322
324 323 322 323 323 324 323 326 326 325 326 327 328 327 326 324 323 324 324 324 322 321
325 326 324 322 322 322 323 324 325 325 325 327 326 326 326 328 326 326 325 324 322 321
325 325 326 324 326 325 324 324 326 326 326 326 326 326 325 328 325 323 322 322 321 322
324 325 324 325 325 325 325 325 326 326 327 327 326 325 326 327 326 323 322 320 320 321
323 323 324 325 327 325 325 326 326 325 326 327 327 326 325 326 325 324 322 321 321 322
322 323 323 324 327 327 325 326 327 327 327 329 328 328 328 326 324 325 324 323 323 323
322 322 324 323 326 327 325 323 324 326 329 329 329 329 327 327 325 324 323 323 325 325
321 322 323 325 322 327 326 320 321 320 320 321 328 310 315 323 326 325 324 323 324 323
319 320 323 324 322 321 320 318 318 318 317 312 312 309 310 315 327 325 324 323 324 325
318 319 321 322 321 321 322 319 317 316 314 311 307 304 307 312 325 324 323 322 323 324
317 317 318 320 321 320 320 320 317 316 313 310 306 302 308 319 322 321 321 323 320 319
315 317 316 319 321 321 321 319 320 318 313 309 308 299 300 314 321 318 313 310 310 310
314 317 317 321 322 321 322 320 319 320 315 313 308 302 297 300 316 317 314 311 307 309

GFSNIL_sfc_thetae_024.txt.gz
Theta_e
320 320 320 320 320 319 320 321 321 323 324 325 325 324 322 321 321 321 320 320 319 322
320 319 318 318 320 319 321 325 322 323 324 325 325 324 322 321 320 320 319 318 318 320
322 323 320 321 319 321 321 323 322 322 323 324 324 323 322 322 323 324 323 320 319 318
322 323 322 323 324 321 321 323 323 323 324 323 323 324 324 323 323 322 321 320 322 320
322 322 322 323 321 322 321 323 323 324 324 323 323 324 324 323 323 321 320 320 321 320
320 322 321 321 322 324 325 322 324 324 324 325 324 325 324 323 321 321 320 321 320 320
319 321 321 323 321 322 323 323 324 326 327 327 326 327 326 325 323 321 320 321 322 322
320 321 321 324 323 323 323 324 327 327 328 328 327 327 325 324 323 322 322 322 324 324
319 320 321 322 323 322 318 321 324 326 327 326 326 309 313 321 324 323 323 322 323 323
319 320 322 320 322 317 315 315 315 316 318 321 320 305 308 312 325 323 323 323 323 324
317 319 320 319 318 317 314 314 313 312 312 314 317 303 305 311 325 323 323 324 324 324
316 318 319 319 317 316 314 313 312 311 311 308 306 302 302 315 322 321 321 323 324 323
316 317 317 318 317 317 315 314 314 312 311 307 304 299 303 314 321 316 316 316 318 309
314 315 315 318 317 318 316 316 313 311 309 310 306 300 300 307 316 316 312 312 313 311

GFSNIL_sfc_thetae_027.txt.gz
Theta_e
317 317 317 317 318 317 319 320 319 322 322 320 322 320 319 318 319 320 320 318 319 319
318 316 316 317 318 318 319 323 321 321 323 323 322 320 319 319 318 318 319 317 321 318
319 319 317 317 318 319 320 320 320 320 321 323 322 320 319 318 319 320 318 316 319 318
319 320 320 319 319 320 320 321 321 321 321 320 319 320 320 323 323 322 321 317 318 318
320 319 318 319 319 321 321 322 321 321 321 321 321 320 322 322 322 320 319 319 320 319
319 319 318 318 320 322 322 321 322 322 321 322 323 321 321 322 320 318 320 320 319 319
319 319 319 319 318 321 323 322 323 324 324 325 326 322 321 321 320 320 320 321 320 319
319 319 321 320 320 321 323 325 326 325 326 326 326 325 322 321 321 320 320 322 323 321
318 320 320 321 320 317 318 323 326 325 325 325 325 307 311 319 323 323 321 321 322 322
318 319 320 321 319 316 316 315 317 321 323 322 319 305 307 312 323 323 323 322 322 323
317 319 318 319 315 314 312 311 312 315 317 319 314 304 303 309 323 323 323 323 323 322
316 318 317 316 313 311 311 310 310 312 313 315 313 301 302 316 323 323 323 323 323 323
315 318 317 316 313 312 310 311 312 310 310 307 311 299 301 314 321 320 321 321 320 311
314 316 316 316 315 313 312 310 309 310 309 307 307 306 299 305 319 319 320 319 317 315

GFSNIL_sfc_thetae_030.txt.gz
Theta_e
319 319 319 319 320 320 321 322 323 324 322 322 321 321 321 321 322 322 322 322 322 323
320 319 318 320 321 321 322 324 323 324 324 323 322 322 321 322 322 323 321 323 323 324
321 321 320 321 321 321 322 322 322 323 324 323 322 322 322 321 321 321 321 322 321 322
322 322 321 322 322 322 322 323 322 323 323 322 321 322 322 323 323 321 320 320 321 320
321 321 320 322 322 323 323 324 323 323 322 322 322 323 323 323 323 322 320 321 321 321
320 320 319 321 323 323 323 323 323 323 323 323 322 322 323 322 321 320 321 321 321 321
320 320 320 320 321 323 324 324 324 324 325 325 323 322 322 321 320 321 321 321 322 322
320 321 321 321 322 323 325 326 326 325 325 326 324 322 322 322 321 321 322 322 322 322
320 321 322 322 321 320 323 325 326 325 325 325 323 305 311 318 322 322 322 321 321 320
320 321 322 322 318 319 318 321 323 323 324 322 318 304 305 312 323 322 323 322 322 322
320 320 321 320 318 316 315 317 319 321 321 320 314 302 303 308 324 323 324 324 323 322
319 319 319 319 316 314 314 314 316 318 320 316 312 300 302 316 323 323 323 323 323 322
318 319 319 318 314 314 314 314 315 314 316 311 314 299 302 316 323 322 322 322 321 310
318 319 319 317 316 314 314 313 313 312 312 315 316 309 301 306 323 323 322 321 320 321

GFSNIL_sfc_thetae_033.txt.gz
Theta_e
329 331 331 330 331 330 330 333 334 334 334 333 332 331 332 330 331 332 331 331 331 327
330 330 330 330 333 333 334 334 333 334 332 332 331 331 332 330 331 328 327 333 330 326
332 332 330 332 331 332 334 333 333 333 332 332 331 331 332 330 332 330 330 331 332 327
332 331 330 331 332 332 334 333 332 332 332 332 331 331 331 331 330 330 330 331 330 325
331 329 330 331 332 332 332 332 333 332 331 330 330 330 329 328 327 327 326 325 328 323
330 329 330 330 331 333 333 332 331 332 330 330 329 328 328 328 327 325 326 329 328 324
331 330 330 331 332 332 332 331 331 332 331 330 327 326 326 325 324 324 325 328 327 328
331 331 330 331 331 333 332 331 329 329 327 330 325 324 324 324 324 325 324 326 326 327
329 329 331 331 331 331 332 329 328 327 327 328 324 306 310 321 324 325 325 325 325 327
329 329 329 329 328 330 331 331 327 326 329 325 322 304 306 312 327 326 325 324 324 323
328 329 330 327 328 328 330 330 329 323 323 323 317 302 304 310 328 326 325 324 324 322
328 329 330 326 327 327 328 329 329 327 319 320 313 301 303 316 326 325 324 323 323 323
328 329 330 329 327 327 329 327 328 327 325 314 315 299 304 317 325 325 323 323 321 309
328 330 331 330 327 327 327 326 326 327 327 325 322 315 300 306 326 324 324 323 324 325

GFSNIL_sfc_thetae_036.txt.gz
Theta_e
335 335 334 335 335 335 335 338 338 337 337 336 335 334 335 334 336 336 335 331 331 331
336 336 334 335 338 338 338 337 337 337 336 335 335 334 336 334 335 335 336 335 332 328
335 336 336 336 335 337 336 335 336 335 336 335 334 333 335 335 335 332 334 338 332 330
336 336 334 335 336 336 336 336 335 334 334 334 333 334 334 334 333 333 334 335 332 325
335 335 334 334 335 336 335 335 335 334 333 333 333 334 333 331 332 332 331 330 330 330
334 334 334 334 335 335 335 335 335 334 332 332 333 333 333 332 332 330 332 332 330 331
333 334 334 335 335 334 334 332 334 333 333 332 332 333 332 331 331 329 332 331 333 332
334 334 334 334 334 334 334 332 333 332 333 331 332 331 331 330 331 328 329 330 330 331
333 333 333 333 334 334 333 332 331 331 331 331 329 309 312 324 329 328 328 327 328 330
332 331 333 332 332 334 334 333 329 329 330 330 330 305 307 312 329 327 327 330 329 328
330 330 332 330 331 334 334 333 325 325 329 329 324 304 305 308 329 328 327 328 328 327
330 331 331 329 331 333 334 333 331 329 326 327 324 302 305 318 328 326 324 324 322 321
330 332 331 331 330 333 333 333 332 322 323 316 321 300 304 319 328 323 321 323 322 306
330 333 335 333 332 332 331 333 330 327 326 328 324 318 303 307 326 323 321 323 325 316

GFSNIL_sfc_thetae_042.txt.gz
Theta_e
342 338 340 341 337 339 339 338 339 338 337 337 335 334 333 332 331 332 330 329 329 328
340 341 340 339 339 339 340 339 337 338 336 336 333 334 333 332 331 331 331 330 328 327
338 337 339 339 337 340 339 338 336 337 336 334 333 334 334 334 334 331 332 328 326 326
337 337 337 338 338 338 338 337 335 334 333 331 330 333 332 333 331 329 327 327 325 323
334 336 337 335 337 335 336 335 335 334 332 331 331 331 331 330 330 329 325 325 325 325
334 337 336 337 337 337 337 334 332 332 332 332 331 330 332 331 330 330 327 327 326 327
331 335 336 337 337 336 336 334 331 332 333 333 331 332 332 331 331 331 330 330 331 330
332 335 335 335 336 336 335 334 332 331 333 331 329 329 330 331 330 331 331 331 330 326
332 332 332 335 335 334 333 333 333 332 331 330 326 308 312 324 329 330 329 328 330 327
331 330 332 333 334 333 333 333 331 329 329 326 324 306 309 313 329 327 328 327 330 328
331 330 332 332 333 334 334 331 332 331 329 325 319 307 308 312 330 329 330 330 330 327
330 329 329 332 333 333 329 329 331 330 327 324 321 306 305 319 328 327 326 324 326 325
331 330 329 332 334 335 330 329 330 329 328 317 323 302 303 319 325 322 323 322 319 306
332 332 332 334 335 334 331 330 327 327 327 326 324 315 302 308 326 324 322 320 318 316

GFSNIL_sfc_thetae_045.txt.gz
Theta_e
329 326 326 326 326 326 326 326 327 326 327 327 328 326 324 325 325 324 323 323 322 321
327 327 326 327 327 327 328 330 328 328 327 327 326 325 323 324 323 324 324 325 325 321
326 327 327 327 326 329 329 329 328 328 327 326 325 326 326 324 325 322 323 322 322 320
327 327 326 326 328 328 327 329 328 328 326 325 326 326 324 323 325 324 324 324 323 321
329 327 326 326 327 329 327 328 328 328 329 328 328 326 324 324 326 325 324 322 323 322
328 326 325 326 327 328 327 327 328 327 326 326 326 327 325 327 325 325 322 322 321 323
328 326 326 325 326 327 327 326 329 329 328 327 327 327 328 326 324 324 324 324 326 324
329 327 327 327 326 327 327 326 326 329 326 327 326 327 325 325 325 324 325 325 325 323
329 330 326 326 326 325 325 326 325 324 325 323 322 308 314 321 323 324 324 325 322 320
329 328 328 328 326 324 323 323 323 325 320 318 314 302 309 316 326 325 324 324 324 325
327 326 328 326 325 323 325 322 324 323 320 316 313 302 302 314 326 326 326 323 322 322
328 326 326 325 324 323 324 321 322 322 318 316 317 303 304 319 325 323 320 320 322 322
327 327 327 325 324 323 322 322 324 322 318 315 319 303 304 316 320 318 319 319 316 306
326 325 327 326 325 323 322 323 324 322 319 320 317 311 305 309 322 320 318 317 317 312

GFSNIL_sfc_thetae_048.txt.gz
Theta_e
324 323 323 323 323 323 323 323 325 324 324 325 325 323 323 321 321 322 322 322 322 321
324 323 323 324 325 325 324 326 325 325 324 325 324 324 321 321 322 322 321 321 323 321
324 325 324 324 323 325 325 327 327 325 325 324 323 323 322 321 324 321 323 322 321 320
324 325 324 324 325 325 325 326 326 326 324 323 323 323 322 320 324 324 323 323 322 320
324 324 322 324 325 326 325 325 326 326 325 326 327 323 321 323 326 323 321 321 322 318
323 323 323 323 325 325 325 325 326 324 325 324 326 326 323 325 325 323 320 320 319 321
324 323 323 323 324 325 325 325 324 324 325 326 326 325 325 325 323 321 321 323 321 323
328 324 324 324 324 325 324 324 325 327 326 326 327 326 324 324 323 322 322 324 325 324
326 325 324 324 323 324 323 323 323 321 322 322 321 305 314 320 322 322 320 319 320 321
327 325 325 325 323 322 320 320 319 319 321 318 314 302 308 313 321 319 319 320 320 321
325 325 325 324 322 320 320 319 320 320 316 315 312 300 304 312 325 322 320 320 320 319
324 325 324 322 320 320 321 318 316 318 315 314 314 301 305 318 322 321 319 320 322 321
326 325 323 321 320 320 319 319 319 318 315 312 316 301 306 316 321 319 318 317 316 307
325 325 324 321 320 319 320 319 317 315 315 319 317 310 301 308 316 318 318 317 316 312

GFSNIL_sfc_thetae_051.txt.gz
Theta_e
322 322 321 321 321 321 321 321 322 323 323 323 323 322 321 319 319 320 321 321 321 318
322 322 321 322 322 322 321 323 324 323 322 322 323 322 320 318 319 321 321 321 322 321
322 322 322 322 322 323 323 325 323 323 323 322 322 322 319 318 321 322 322 322 322 321
322 322 322 322 323 323 323 324 324 324 323 322 321 320 319 319 322 322 322 322 320 319
322 321 321 322 323 324 323 324 324 325 323 323 323 321 320 320 324 323 322 320 322 319
320 320 320 321 323 324 323 323 324 323 323 326 327 325 321 323 323 321 319 319 319 319
321 321 321 321 322 323 324 323 323 322 324 326 326 323 324 323 322 320 320 321 321 324
321 321 321 322 322 323 323 323 323 324 323 325 324 324 323 323 320 320 323 323 323 324
323 323 322 321 322 321 321 323 323 321 322 322 320 307 312 318 320 320 318 320 321 322
326 323 322 322 322 320 319 319 318 319 319 318 314 303 307 312 319 318 318 317 320 321
324 322 323 321 320 318 317 317 316 320 318 316 312 301 303 311 322 318 318 318 321 320
323 323 322 320 318 318 319 316 316 318 316 314 316 302 302 317 322 321 320 320 321 318
323 323 322 319 318 317 319 316 316 316 315 309 317 301 304 315 320 319 318 318 317 309
323 322 321 319 317 317 317 316 314 313 314 316 317 312 302 307 319 317 316 317 316 313

GFSNIL_sfc_thetae_057.txt.gz
Theta_e
340 337 337 338 337 337 337 338 341 339 339 338 337 336 336 334 333 333 332 332 331 331
337 338 336 338 339 337 339 337 338 338 337 337 336 336 336 332 333 333 333 330 327 324
337 338 338 338 337 337 338 337 337 336 337 336 336 335 335 333 334 333 332 328 324 325
335 336 337 337 337 338 338 337 336 335 335 335 334 334 333 334 332 330 331 327 330 325
335 335 336 335 336 337 337 337 334 334 334 333 332 333 333 331 331 330 330 329 328 322
334 334 334 335 336 336 336 336 335 335 333 331 332 333 333 331 331 332 331 329 327 326
333 334 335 336 336 335 335 335 335 333 332 332 332 332 331 332 333 332 331 329 327 329
333 334 334 335 335 335 334 334 333 332 332 333 332 331 333 333 332 331 330 330 331 328
332 332 333 334 334 335 334 333 333 332 331 330 329 307 313 325 331 331 329 326 329 327
331 331 332 333 333 333 334 335 333 333 328 326 321 303 304 313 332 331 326 326 328 327
330 330 332 332 332 332 333 333 331 329 325 324 321 301 302 309 332 331 328 326 328 329
329 330 331 331 332 332 331 331 328 325 323 323 326 301 302 314 331 327 325 326 328 324
330 330 331 332 331 332 331 330 327 324 324 316 329 302 301 316 327 324 323 324 322 309
331 332 333 332 332 332 330 329 328 327 326 328 325 320 302 307 326 324 323 322 321 316

GFSNIL_sfc_thetae_060.txt.gz
Theta_e
351 347 346 346 343 341 340 341 348 346 346 344 344 342 342 340 337 338 335 335 334 335
347 347 345 347 347 342 345 343 346 346 344 343 343 341 341 336 337 336 337 337 336 332
346 345 346 345 343 344 344 343 343 343 343 341 340 340 339 337 336 336 339 334 331 328
342 343 343 343 343 343 344 342 340 339 339 338 338 339 338 336 335 334 335 335 332 332
342 342 342 341 342 342 340 340 339 338 336 336 336 336 335 334 334 331 333 332 331 330
339 339 339 339 340 340 339 339 337 336 334 334 334 334 335 334 333 334 333 332 331 331
335 337 338 339 339 339 338 337 336 336 334 333 333 333 334 333 334 334 334 332 333 332
337 338 338 338 338 338 338 336 335 334 333 333 332 331 334 335 335 334 333 334 331 334
335 336 336 337 337 338 336 335 335 333 333 333 330 308 316 328 335 333 332 333 328 331
334 334 335 335 335 336 336 337 335 335 334 334 333 304 306 314 335 335 333 332 331 328
331 332 333 334 334 336 338 336 337 335 333 334 325 303 302 309 334 335 333 331 332 331
330 332 333 333 335 336 337 336 335 333 330 332 331 303 302 313 332 333 331 331 331 331
329 333 332 335 336 337 337 335 332 330 330 320 331 303 301 316 333 330 328 329 329 308
332 333 334 335 336 336 335 332 332 331 332 333 329 322 304 307 328 328 327 326 325 325

GFSNIL_sfc_thetae_063.txt.gz
Theta_e
355 350 351 355 349 346 345 346 354 348 347 346 345 344 345 343 343 343 337 338 336 336
354 357 352 357 357 346 352 345 347 345 345 345 344 343 344 341 340 339 337 338 337 336
351 350 350 350 351 349 348 344 343 344 344 343 342 341 342 342 339 337 337 339 336 334
347 348 348 345 345 344 345 343 341 340 340 340 340 340 340 339 336 334 336 336 334 332
345 344 344 343 343 343 342 341 338 338 336 335 337 338 337 334 334 332 333 333 333 331
342 342 342 341 341 340 339 338 338 337 336 333 335 334 334 333 333 333 333 334 332 332
340 339 339 339 339 340 338 338 337 336 334 334 334 333 333 334 334 334 335 335 333 333
337 338 338 338 338 339 337 337 335 335 335 334 332 330 335 335 335 336 334 335 333 335
335 336 338 338 338 339 337 337 336 335 333 333 329 308 320 329 337 335 334 333 332 330
334 334 335 336 336 336 339 338 337 335 334 334 330 306 309 317 337 336 336 335 332 328
332 332 334 334 336 337 339 338 337 336 336 335 327 305 306 308 335 336 333 333 334 330
331 332 332 332 334 338 338 338 337 335 334 334 331 304 304 314 334 332 332 332 332 333
331 331 332 336 336 339 339 337 335 333 334 323 332 303 303 316 332 331 331 332 328 308
332 334 336 337 338 338 336 335 334 332 334 333 330 322 303 308 332 329 328 328 327 325

GFSNIL_sfc_thetae_069.txt.gz
Theta_e
341 341 341 342 342 341 340 339 340 342 341 341 339 337 335 333 331 330 328 327 325 322
340 341 343 342 343 341 339 340 341 341 342 339 337 336 333 331 330 329 327 326 325 323
341 344 345 345 342 341 340 341 341 339 337 335 335 334 332 329 330 328 327 327 325 324
343 345 345 343 342 342 342 342 340 338 335 334 333 333 330 329 329 328 327 327 326 324
342 343 341 338 338 339 339 339 338 336 334 334 333 331 329 328 329 328 326 327 326 325
342 339 337 335 334 335 333 332 333 332 335 334 334 332 328 329 329 327 327 327 326 324
339 337 334 333 332 333 332 330 329 332 333 334 333 333 331 330 325 327 328 328 327 326
337 335 334 332 332 331 330 329 332 331 331 331 329 330 329 328 329 326 327 328 327 323
333 332 331 330 330 329 329 331 331 329 330 323 325 311 317 324 326 328 327 322 321 320
331 332 330 331 331 330 329 330 327 326 325 322 316 306 313 321 326 327 326 323 322 322
331 331 330 327 326 328 327 329 325 325 323 319 312 303 308 316 326 325 326 323 321 320
331 330 328 325 325 327 326 324 325 326 322 318 313 303 306 316 325 324 328 328 326 325
329 329 328 329 327 327 326 325 327 325 324 315 313 304 304 313 324 323 323 323 320 313
329 331 331 330 328 327 327 326 325 325 323 320 315 307 304 303 324 322 321 318 316 313

GFSNIL_sfc_thetae_072.txt.gz
Theta_e
330 332 333 337 340 340 340 339 339 339 339 339 337 335 334 335 331 328 325 323 322 320
333 332 336 338 341 340 339 339 338 338 338 337 335 333 331 329 328 327 325 324 323 320
335 337 338 340 340 339 338 340 338 337 337 335 335 332 330 327 328 326 324 324 323 321
336 340 341 341 340 338 339 338 338 338 335 335 332 330 328 327 327 325 324 324 323 322
338 340 340 341 340 339 339 338 339 337 334 333 332 329 328 327 328 325 324 324 324 322
338 340 338 337 339 339 339 338 337 335 333 332 331 329 328 328 327 326 325 325 324 323
337 335 334 335 335 336 336 335 333 333 332 333 333 332 330 327 326 325 326 326 326 325
334 334 334 334 332 331 331 330 330 329 330 330 332 331 329 329 323 324 324 325 326 324
334 333 333 332 330 328 327 326 327 328 330 328 327 312 315 324 324 324 324 322 320 319
333 331 330 331 328 324 324 325 325 327 325 323 318 305 309 314 325 324 321 319 319 320
331 329 329 327 325 323 325 326 326 322 318 317 313 302 305 312 324 323 322 321 319 319
330 328 325 323 323 323 324 323 321 320 317 315 311 301 303 315 322 322 321 322 321 321
330 327 323 323 323 322 322 322 324 320 317 312 313 301 302 315 321 320 322 322 321 310
329 326 326 324 323 323 323 323 323 320 317 315 312 307 300 305 322 321 320 320 318 312

GFSNIL_sfc_thetae_075.txt.gz
Theta_e
327 325 328 332 333 336 337 338 339 339 339 337 335 334 335 332 330 327 324 323 321 320
327 325 328 332 335 337 336 338 339 339 338 336 335 334 332 331 332 327 324 322 321 318
328 328 329 333 335 336 336 338 338 337 336 335 334 334 330 327 326 325 323 322 321 319
328 329 333 335 337 337 337 338 338 337 335 334 334 332 328 326 326 325 322 322 322 320
329 333 334 336 337 336 337 338 337 335 335 334 334 331 328 326 327 324 322 323 322 321
332 334 335 336 336 337 337 337 337 335 334 333 332 329 327 327 326 324 323 323 322 321
334 337 337 336 336 337 337 336 335 335 334 333 331 330 327 326 325 324 324 324 323 323
335 334 334 335 336 336 336 335 335 333 332 331 329 329 327 328 324 323 323 323 324 324
332 333 333 333 335 334 332 333 333 331 329 326 328 310 313 322 324 322 322 321 321 319
332 331 331 332 331 330 329 329 327 325 325 323 322 305 307 313 325 322 321 320 318 318
331 330 330 329 328 326 325 325 323 322 321 319 314 302 303 309 322 320 320 318 318 318
330 329 328 326 325 324 323 322 320 319 317 316 312 301 301 314 321 320 319 319 318 319
330 328 325 323 322 320 323 320 320 316 316 311 313 299 300 313 321 318 318 320 318 308
328 325 323 322 322 320 321 320 318 316 314 314 312 306 300 304 320 320 318 318 317 311

GFSNIL_sfc_thetae_078.txt.gz
Theta_e
334 335 332 331 330 333 335 337 340 340 340 340 339 338 337 335 334 331 330 328 327 326
329 332 330 329 332 333 336 338 340 341 339 339 338 337 337 335 333 331 330 329 327 326
327 330 329 330 332 334 336 339 339 339 339 338 338 337 336 334 333 331 328 327 326 325
325 327 327 330 333 336 337 339 339 340 338 337 336 335 334 331 330 329 327 327 326 325
325 327 329 331 334 336 337 339 339 339 337 336 335 334 332 330 330 328 326 326 326 325
326 328 329 331 335 336 337 338 339 338 336 335 334 333 332 331 329 328 328 327 326 325
328 330 331 333 335 336 338 337 337 338 336 335 335 333 331 330 329 328 327 327 327 326
329 332 334 335 335 337 337 337 337 336 335 334 333 331 330 329 328 328 327 327 327 328
334 335 335 335 335 336 336 335 335 334 333 332 332 310 313 324 328 327 327 326 326 326
333 333 333 334 335 334 334 334 334 332 332 329 327 307 308 312 328 326 326 326 325 324
333 332 334 335 333 333 332 332 331 330 328 326 320 304 304 309 326 324 326 325 324 324
332 331 331 331 329 330 329 327 326 326 324 322 316 300 302 317 325 324 323 323 323 323
330 329 328 327 326 329 327 323 323 321 322 313 313 298 301 317 324 322 322 321 321 307
329 326 326 325 325 325 323 321 320 318 317 317 314 307 300 304 325 324 322 322 319 316

GFSNIL_sfc_thetae_084.txt.gz
Theta_e
332 329 328 334 335 336 342 345 356 356 355 354 355 355 356 354 353 355 352 352 351 343
331 333 332 336 342 338 348 343 351 356 356 356 356 355 357 353 354 354 353 352 351 346
329 333 336 335 338 343 348 351 353 355 357 356 355 355 358 355 356 353 351 349 349 348
326 331 333 336 338 340 348 349 347 351 354 354 353 355 356 357 353 352 351 348 348 345
326 329 331 334 339 340 343 345 346 349 351 350 351 355 355 353 351 348 346 345 344 343
324 326 329 333 339 340 341 343 345 348 349 348 350 353 354 352 349 348 346 344 344 342
323 326 328 332 339 340 340 341 346 349 348 348 350 352 352 350 348 347 346 346 344 342
322 325 327 329 340 340 342 343 348 348 348 349 350 349 351 348 347 347 346 345 342 341
320 322 325 330 341 339 341 346 348 350 346 349 347 316 319 340 347 346 344 340 340 340
318 319 322 332 339 338 346 353 353 352 350 351 349 312 313 318 346 343 342 340 338 337
314 317 321 336 337 344 349 353 352 352 352 351 340 309 308 313 345 342 341 339 338 338
316 317 325 336 339 346 349 351 350 349 349 347 331 305 308 323 339 338 338 338 339 338
313 320 331 336 341 344 347 345 346 344 346 330 335 303 306 322 334 335 334 337 338 309
316 330 335 336 338 339 339 339 339 339 342 341 333 319 304 306 334 332 330 332 333 332

GFSNIL_sfc_thetae_087.txt.gz
Theta_e
330 328 330 335 334 331 332 337 349 358 359 359 358 359 362 356 355 357 355 360 356 349
329 331 331 339 342 333 339 339 345 355 356 358 359 358 360 355 358 357 358 358 358 353
327 328 332 336 338 343 343 344 344 349 358 360 359 360 361 358 360 360 356 355 357 355
324 326 330 333 336 337 341 343 342 345 350 357 360 361 362 360 358 357 357 356 353 352
323 325 329 330 333 338 340 345 343 344 346 351 356 361 360 356 354 354 352 352 351 348
323 325 328 331 334 333 338 341 341 340 346 349 354 357 358 355 354 354 353 351 348 346
319 325 326 329 332 332 335 337 341 344 345 348 352 354 355 354 355 354 351 350 348 348
319 323 324 326 329 332 335 335 341 341 346 350 353 351 354 354 355 354 351 350 347 346
314 317 322 325 328 331 332 336 345 342 345 350 350 322 323 344 354 352 347 346 346 343
313 315 318 320 325 328 332 338 343 345 349 350 354 313 314 322 354 350 349 347 345 340
313 314 317 320 320 327 332 339 343 346 352 351 350 310 312 317 353 351 349 347 345 344
313 312 312 315 321 324 331 339 344 350 350 349 338 308 311 327 349 346 344 341 340 340
311 311 313 315 317 322 333 340 346 347 348 337 338 307 311 326 342 342 337 340 336 312
312 312 316 316 317 326 337 341 345 345 345 345 336 324 307 310 339 336 334 334 335 333

GFSNIL_sfc_thetae_093.txt.gz
Theta_e
321 322 320 321 323 324 326 326 329 332 332 332 347 348 346 345 342 341 340 342 343 341
319 319 320 320 321 322 324 329 330 329 327 326 334 347 348 346 345 343 343 346 346 343
318 320 320 320 321 322 323 325 326 328 331 331 330 330 337 347 347 345 345 348 346 345
318 315 315 316 319 319 320 322 327 331 331 332 333 333 330 334 344 346 346 347 346 344
313 314 314 312 313 317 319 322 322 323 326 329 331 333 332 332 342 346 345 346 346 345
313 313 312 315 315 313 319 322 322 322 322 324 326 328 332 333 335 345 347 346 347 346
310 312 313 313 314 316 317 314 316 319 320 322 326 328 330 334 334 342 347 347 346 343
312 313 312 313 313 313 313 316 317 318 318 321 323 325 326 331 333 338 343 344 345 343
311 311 312 311 312 312 312 311 312 313 315 319 323 315 311 317 325 334 340 340 342 343
309 309 309 310 310 310 309 309 310 312 314 317 320 309 308 310 324 328 338 339 340 337
308 308 308 308 309 307 306 308 309 311 313 315 319 308 306 308 322 326 336 340 338 335
307 307 307 306 306 308 308 308 308 310 311 314 316 307 305 309 324 327 337 339 336 333
306 306 305 306 306 307 307 307 309 309 312 310 311 307 304 308 322 328 335 337 334 318
306 306 307 307 307 308 308 308 308 309 310 311 312 314 304 305 320 329 335 334 331 329

GFSNIL_sfc_thetae_096.txt.gz
Theta_e
315 315 317 319 317 321 321 325 327 329 329 329 330 335 343 342 342 341 339 338 338 339
316 316 317 317 317 317 320 323 326 328 325 327 329 333 338 340 340 340 340 339 338 338
312 315 317 316 316 318 319 320 322 323 324 326 329 330 328 328 335 342 342 342 340 342
313 314 317 318 317 316 315 315 318 322 326 327 326 326 327 327 330 329 336 342 343 343
314 314 313 312 311 311 312 315 317 320 321 322 325 325 323 325 329 331 331 337 343 344
312 311 311 311 311 311 314 313 315 319 319 319 319 319 321 324 325 327 331 334 339 342
309 310 311 311 311 312 312 312 312 312 314 317 317 318 318 320 323 327 331 333 337 343
307 308 310 310 311 313 313 314 314 312 313 315 315 317 317 320 320 320 324 327 332 338
309 310 311 310 310 311 312 312 312 313 314 311 313 307 308 311 317 320 321 321 325 329
309 308 308 310 310 309 308 309 310 310 310 310 311 305 304 306 314 317 318 320 323 326
308 307 307 306 305 305 305 306 306 308 309 310 311 304 303 305 313 316 318 321 324 326
306 305 305 304 303 303 303 305 306 307 308 308 309 303 302 305 315 316 316 320 325 329
306 304 303 303 304 305 305 304 305 305 306 306 306 302 300 304 312 313 315 316 320 316
305 305 305 305 305 304 304 305 305 306 306 307 308 306 300 300 309 311 311 313 319 330

GFSNIL_sfc_thetae_102.txt.gz
Theta_e
315 314 314 315 316 317 317 319 323 326 328 330 330 329 331 334 337 338 338 337 337 337
314 312 314 315 316 317 317 320 322 323 326 325 326 328 331 332 331 334 337 335 336 337
313 313 314 314 315 316 317 319 321 324 323 321 323 327 329 326 328 330 331 334 336 338
312 314 314 314 315 316 317 317 319 320 319 319 321 326 323 324 327 326 326 329 330 331
311 312 313 314 316 316 316 317 319 319 317 319 322 322 321 323 324 321 321 323 326 327
310 310 311 313 315 316 316 317 317 316 316 317 320 321 322 320 320 321 322 323 323 326
309 310 311 313 314 315 315 316 314 315 315 316 318 319 319 318 318 320 320 322 325 326
308 309 310 311 312 313 313 313 314 313 314 315 316 315 316 317 317 317 318 321 323 323
307 307 307 309 311 311 311 312 312 312 313 312 313 307 306 312 315 316 317 317 319 320
308 307 308 309 309 309 310 311 311 312 312 312 312 303 302 305 313 313 313 314 315 315
306 307 308 308 308 309 309 309 310 310 311 312 312 302 301 302 310 311 312 313 314 315
304 304 306 306 307 308 308 308 308 309 310 309 310 301 300 302 310 309 310 312 315 316
301 302 303 304 305 306 305 307 307 307 308 307 309 300 299 302 308 307 308 312 314 305
299 300 301 302 304 304 304 305 304 305 306 306 306 306 297 298 306 307 307 308 309 310

GFSNIL_sfc_thetae_105.txt.gz
Theta_e
331 330 330 331 328 328 330 332 337 336 337 338 338 340 342 340 340 343 342 341 341 339
328 328 326 329 331 328 331 328 332 335 335 337 336 335 338 337 340 341 341 341 341 339
326 326 325 327 328 329 330 329 330 331 333 333 332 332 336 333 333 333 333 332 333 335
324 322 324 325 327 329 331 330 328 329 331 329 328 330 334 332 329 329 329 329 327 327
322 322 322 323 326 329 329 329 328 328 328 326 324 327 328 326 325 324 322 322 323 322
321 321 322 323 325 327 328 328 327 326 326 325 322 325 327 325 324 323 323 323 322 322
316 318 320 321 324 325 326 326 326 326 325 325 324 322 324 325 324 324 323 324 324 322
314 315 316 317 319 322 323 325 325 325 325 325 325 321 322 324 324 324 323 324 323 324
310 312 315 316 316 318 320 322 323 323 323 323 322 310 307 319 323 323 322 322 323 323
308 308 311 313 314 317 318 320 321 322 322 323 325 305 303 306 322 322 323 323 322 321
304 306 308 310 311 314 317 318 318 319 321 323 323 304 301 302 320 322 323 323 322 321
304 304 305 306 309 311 312 315 317 318 319 320 321 303 300 304 318 320 320 320 320 318
303 303 303 304 306 308 310 310 311 313 317 313 319 302 298 305 318 318 316 318 317 305
302 302 303 303 305 306 307 308 310 310 314 316 316 316 298 298 317 315 313 313 313 314

GFSNIL_sfc_thetae_108.txt.gz
Theta_e
340 342 347 348 345 343 341 342 349 348 349 349 349 349 348 345 345 347 345 346 343 337
337 341 343 345 344 340 345 338 341 343 343 342 342 343 345 342 343 344 344 345 344 340
335 337 338 338 337 337 336 333 333 335 337 338 338 340 342 339 341 342 341 340 342 343
331 331 331 331 331 332 336 332 330 331 332 332 334 336 337 337 334 336 336 336 334 334
327 327 328 328 329 332 332 331 331 328 327 329 329 331 331 330 328 327 327 327 325 324
321 323 326 328 329 330 330 331 329 327 326 326 325 325 327 327 325 325 325 325 325 324
320 321 322 324 326 329 329 329 329 327 326 325 325 323 325 325 325 326 325 326 325 324
313 318 320 321 321 323 324 326 327 328 328 326 325 323 324 325 327 327 326 327 326 326
310 311 314 316 319 321 321 323 325 327 327 327 324 311 309 322 327 327 326 325 327 326
310 309 309 312 314 316 318 323 324 325 326 329 332 306 305 307 328 328 327 327 326 324
309 309 309 311 313 318 319 319 320 323 325 327 328 306 302 304 328 331 329 328 328 327
309 309 309 309 310 315 314 317 319 320 322 324 325 305 301 306 324 324 327 325 327 326
309 308 308 309 310 311 312 313 315 317 320 316 323 306 300 306 322 323 322 326 327 308
308 308 309 309 309 309 309 310 312 314 318 319 320 320 299 299 321 320 320 321 322 323

GFSNIL_sfc_thetae_111.txt.gz
Theta_e
341 335 339 347 348 345 346 347 355 358 358 357 355 353 355 349 347 351 349 351 349 341
336 340 339 346 351 345 350 348 349 356 354 353 353 354 357 347 352 352 351 351 351 346
333 334 340 344 347 349 350 347 343 347 347 349 350 349 353 347 349 348 344 342 347 346
332 332 335 336 339 343 346 341 341 340 342 342 341 344 346 345 339 340 344 343 340 339
327 327 326 327 333 335 335 335 333 332 330 330 330 335 335 334 332 331 331 333 334 332
323 324 325 327 330 331 332 331 329 328 326 325 326 329 331 329 328 329 328 330 328 327
322 322 322 323 325 328 329 330 329 327 326 325 326 326 327 326 329 329 328 329 327 326
318 319 318 317 320 323 325 327 328 324 324 326 325 321 325 325 327 331 330 331 326 329
315 316 316 316 316 318 320 322 324 326 326 328 322 310 309 323 329 330 330 329 329 330
312 313 314 315 315 315 319 320 321 323 324 326 331 310 303 308 330 332 332 333 333 329
311 311 313 313 313 316 315 316 317 320 323 325 327 310 303 305 327 331 334 334 334 333
311 310 311 311 316 318 317 316 317 317 319 321 324 310 302 307 324 328 331 332 333 332
309 309 309 313 316 317 317 316 315 316 320 317 320 310 303 307 324 326 326 331 332 311
308 309 311 313 316 315 314 314 316 315 316 319 320 321 302 300 323 324 325 325 326 328

GFSNIL_sfc_thetae_114.txt.gz
Theta_e
340 335 336 339 340 338 340 343 345 350 337 329 328 333 343 345 346 345 345 344 343 338
337 337 336 339 340 338 343 342 342 344 340 331 325 328 334 342 343 344 345 344 345 344
337 334 336 334 337 339 342 342 342 344 333 324 326 327 336 338 341 342 344 343 344 342
330 331 330 331 331 332 336 340 339 340 337 335 334 324 324 321 324 339 340 341 341 340
329 329 329 329 330 331 328 330 332 337 336 334 329 320 317 313 326 330 335 337 335 335
321 324 326 326 326 328 324 324 326 328 330 331 329 327 331 330 331 327 329 331 331 332
317 323 324 324 323 322 321 320 321 322 326 326 327 327 327 328 330 328 328 330 329 328
317 317 321 320 320 321 319 319 319 319 322 323 326 323 326 325 328 329 328 330 327 328
314 315 315 319 319 320 319 318 318 318 321 322 323 310 309 324 328 329 328 326 325 326
312 312 313 313 318 318 318 316 314 316 317 318 321 312 306 306 326 326 326 325 325 323
310 310 311 312 312 316 318 316 315 315 316 317 319 307 304 305 318 323 328 327 327 327
307 305 305 307 312 313 316 316 315 314 313 313 316 308 305 308 319 318 319 324 329 328
305 305 304 304 305 310 311 314 315 315 316 313 315 307 301 306 320 318 318 316 327 312
305 304 305 304 303 304 308 309 311 312 314 314 315 317 303 300 314 316 319 319 320 322

GFSNIL_sfc_thetae_117.txt.gz
Theta_e
325 325 325 326 325 331 333 334 335 335 338 334 332 334 333 331 325 327 337 338 337 335
324 325 324 326 326 328 330 332 332 333 335 329 328 327 328 328 326 333 330 328 330 325
320 322 322 322 322 323 324 326 328 333 334 330 326 323 321 320 323 321 320 321 322 320
318 320 321 320 321 321 323 323 323 323 324 330 326 324 322 323 323 323 320 321 321 321
315 317 316 316 317 319 319 316 320 321 322 322 327 325 324 323 325 322 322 318 317 318
309 311 315 316 316 317 316 316 315 317 318 322 321 324 322 320 321 320 322 318 320 325
307 309 310 314 316 316 317 316 315 315 317 321 321 321 323 321 318 319 325 323 327 327
308 309 309 309 313 315 315 316 316 315 316 318 320 322 316 317 320 323 319 322 325 326
307 307 307 307 309 313 314 314 314 312 314 316 319 307 307 312 316 319 321 320 320 321
306 305 305 306 306 306 310 313 312 310 311 312 313 309 305 308 316 316 317 318 316 318
304 303 303 303 303 302 304 308 311 310 309 310 313 307 305 307 314 315 316 316 317 316
304 303 301 300 300 302 303 303 306 310 309 309 310 305 301 305 314 314 316 318 315 313
302 301 300 299 299 300 302 302 303 305 310 309 310 303 300 304 314 313 315 316 315 309
300 299 299 300 299 299 300 300 301 302 302 306 310 310 301 300 311 312 314 313 312 316

GFSNIL_sfc_thetae_123.txt.gz
Theta_e
317 318 317 318 320 319 319 319 320 319 322 323 326 329 330 326 325 324 323 321 320 320
317 318 319 319 318 318 317 321 318 318 316 318 320 321 323 325 327 328 327 326 325 321
317 317 316 315 315 315 316 317 315 315 315 316 316 317 317 318 321 322 323 325 323 321
310 314 315 314 314 314 314 314 313 314 315 315 315 316 315 316 319 319 319 321 322 321
310 312 311 311 311 312 313 313 313 313 314 315 315 315 314 316 319 320 321 322 321 320
307 307 307 307 309 310 310 310 311 313 312 312 313 314 316 317 318 318 319 320 322 321
304 303 304 305 306 307 308 308 308 309 311 312 313 314 316 315 314 313 316 317 318 319
303 303 304 304 305 306 306 307 307 308 309 310 311 313 312 313 312 312 312 315 319 320
304 304 304 304 304 304 304 305 306 307 308 308 311 307 306 308 310 311 312 312 313 316
305 305 304 305 304 303 302 303 303 303 304 305 305 304 302 304 307 309 310 311 312 315
303 303 304 302 301 300 299 298 300 300 302 303 304 302 300 302 305 307 310 311 312 312
300 299 299 299 298 298 296 297 297 298 300 300 301 301 300 301 306 306 308 311 312 314
297 297 297 297 297 298 297 298 299 299 300 301 300 298 298 300 305 306 307 310 312 307
294 294 295 295 296 296 297 298 298 299 300 300 300 300 298 298 303 305 308 309 312 314